Location: B?jaj?g
(11.7167°N, 92.6667°E)
Time: 12:52:26
(UTC+00:00)

GP-B - Pass Details

Date: 18 September 2020
Orbit: 631 x 635 km, 89.8° (Epoch: 24 October)

Event Time Altitude Azimuth Distance (km) Brightness Sun altitude
Rises 11:58:01 0° 13° (NNE) 2,916 6.4 -3.3°
Reaches altitude 10° 12:00:18 10° 19° (NNE) 2,007 5.5 -3.8°
Maximum altitude 12:04:33 47° 93° (E) 841 3.4 -4.9°
Drops below altitude 10° 12:08:46 10° 166° (SSE) 2,005 5.5 -5.9°
Sets 12:11:03 0° 172° (S) 2,912 6.4 -6.5°
